CARTOSAT-3

Last updated on Wed Sep 17 2025 00:02:31 GMT+0000 (Coordinated Universal Time)

1 44804U 19081A 25259.62357624 .00004482 00000+0 21534-3 0 9992 2 44804 97.4716 320.2413 0013393 33.7738 326.4347 15.19270516321935
UTC large
Height (km)
Speed (km/s)
/
Latitude / Longitude
Inclination (degrees)
Orbital Period (minutes)
Azimuth
Elevation
Range (km)
Doppler Factor

Next 0 passes for location: London (51.5072 / 0.1276)

Sorry there are no passes over London.